• In Hungary
  • List of Countries
  • For 7 days
  • Water Temperature
  • Satellite Maps
  • Weather Map
  • News
  • Weather Widgets
  • user-avatar
    Login

    Hourly Weather Lowech

    Today, 19 October, Thursday

    Time Temperature Precipitation Wind Pressure Humidity
    00:00 +18°C° 0 mm 1 mps 739 mmHg 53%
    01:00 +16°C° 0 mm 1 mps 739 mmHg 54%
    02:00 +16°C° 0 mm 1 mps 739 mmHg 54%
    03:00 +16°C° 0 mm 1 mps 738 mmHg 54%
    04:00 +15°C° 0 mm 1 mps 738 mmHg 54%
    05:00 +15°C° 0 mm 1 mps 738 mmHg 54%
    06:00 +16°C° 0 mm 1 mps 738 mmHg 53%
    07:00 +16°C° 0 mm 1 mps 738 mmHg 53%
    08:00 +18°C° 0 mm 1 mps 738 mmHg 52%
    09:00 +20°C° 0 mm 1 mps 738 mmHg 46%
    10:00 +22°C° 0 mm 1 mps 738 mmHg 41%
    11:00 +24°C° 0 mm 1 mps 738 mmHg 35%
    12:00 +25°C° 0 mm 1 mps 738 mmHg 33%
    13:00 +26°C° 0 mm 1 mps 738 mmHg 32%
    14:00 +26°C° 0 mm 1 mps 738 mmHg 30%
    15:00 +25°C° 0 mm 1 mps 737 mmHg 34%
    16:00 +24°C° 0 mm 1 mps 737 mmHg 38%
    17:00 +23°C° 0 mm 1 mps 737 mmHg 42%
    18:00 +21°C° 0 mm 1 mps 737 mmHg 44%
    19:00 +20°C° 0 mm 1 mps 737 mmHg 46%
    20:00 +19°C° 0 mm 1 mps 737 mmHg 48%
    21:00 +19°C° 0 mm 1 mps 737 mmHg 48%
    22:00 +18°C° 0 mm 1 mps 737 mmHg 49%
    23:00 +18°C° 0 mm 1 mps 737 mmHg 50%

    Tomorrow, 20 October, Friday

    Time Temperature Precipitation Wind Pressure Humidity
    00:00 +16°C° 0 mm 1 mps 737 mmHg 51%
    01:00 +16°C° 0 mm 1 mps 738 mmHg 51%
    02:00 +16°C° 0 mm 1 mps 738 mmHg 52%
    03:00 +15°C° 0 mm 1 mps 737 mmHg 52%
    04:00 +15°C° 0 mm 1 mps 737 mmHg 52%
    05:00 +15°C° 0 mm 1 mps 737 mmHg 53%
    06:00 +15°C° 0 mm 1 mps 737 mmHg 53%
    07:00 +16°C° 0 mm 1 mps 738 mmHg 52%
    08:00 +16°C° 0 mm 1 mps 738 mmHg 52%
    09:00 +20°C° 0 mm 1 mps 738 mmHg 47%
    10:00 +22°C° 0 mm 1 mps 738 mmHg 41%
    11:00 +24°C° 0 mm 1 mps 738 mmHg 36%
    12:00 +25°C° 0 mm 2 mps 738 mmHg 35%
    13:00 +25°C° 0 mm 2 mps 738 mmHg 34%
    14:00 +26°C° 0 mm 2 mps 738 mmHg 32%
    15:00 +25°C° 0 mm 2 mps 737 mmHg 37%
    16:00 +24°C° 0 mm 1 mps 737 mmHg 41%
    17:00 +22°C° 0 mm 1 mps 737 mmHg 45%
    18:00 +21°C° 0 mm 1 mps 737 mmHg 47%
    19:00 +20°C° 0 mm 1 mps 738 mmHg 49%
    20:00 +19°C° 0 mm 1 mps 738 mmHg 51%
    21:00 +19°C° 0 mm 1 mps 738 mmHg 52%
    22:00 +18°C° 0 mm 1 mps 738 mmHg 53%
    23:00 +17°C° 0 mm 2 mps 738 mmHg 54%

    Day after tomorrow, 21 October, Saturday

    Time Temperature Precipitation Wind Pressure Humidity
    00:00 +16°C° 0 mm 2 mps 738 mmHg 55%
    01:00 +16°C° 0 mm 2 mps 738 mmHg 55%
    02:00 +16°C° 0 mm 2 mps 738 mmHg 56%
    03:00 +15°C° 0 mm 2 mps 738 mmHg 55%
    04:00 +15°C° 0 mm 2 mps 738 mmHg 55%
    05:00 +15°C° 0 mm 2 mps 738 mmHg 55%
    06:00 +15°C° 0 mm 2 mps 738 mmHg 55%
    07:00 +16°C° 0 mm 2 mps 738 mmHg 54%
    08:00 +16°C° 0 mm 1 mps 739 mmHg 54%
    09:00 +18°C° 0 mm 2 mps 739 mmHg 48%
    10:00 +20°C° 0 mm 2 mps 739 mmHg 42%
    11:00 +23°C° 0 mm 2 mps 739 mmHg 36%
    12:00 +22°C° 0 mm 3 mps 739 mmHg 35%
    13:00 +24°C° 0 mm 3 mps 738 mmHg 34%
    14:00 +25°C° 0 mm 3 mps 738 mmHg 33%
    15:00 +23°C° 0 mm 2 mps 738 mmHg 37%
    16:00 +21°C° 0 mm 2 mps 738 mmHg 41%
    17:00 +21°C° 0 mm 1 mps 737 mmHg 45%
    18:00 +20°C° 0 mm 1 mps 737 mmHg 47%
    19:00 +19°C° 0 mm 1 mps 737 mmHg 50%
    20:00 +18°C° 0 mm 1 mps 738 mmHg 52%
    21:00 +16°C° 0 mm 1 mps 738 mmHg 53%
    22:00 +16°C° 0 mm 2 mps 738 mmHg 54%
    23:00 +16°C° 0 mm 2 mps 738 mmHg 55%

    22 October, Sunday

    Time Temperature Precipitation Wind Pressure Humidity
    00:00 +15°C° 0 mm 2 mps 738 mmHg 56%
    01:00 +15°C° 0 mm 2 mps 738 mmHg 57%
    02:00 +15°C° 0 mm 1 mps 738 mmHg 58%
    03:00 +15°C° 0 mm 1 mps 737 mmHg 59%
    04:00 +14°C° 0 mm 1 mps 737 mmHg 60%
    05:00 +14°C° 0 mm 1 mps 737 mmHg 60%
    06:00 +15°C° 0 mm 1 mps 737 mmHg 60%
    07:00 +15°C° 0 mm 1 mps 737 mmHg 59%
    08:00 +15°C° 0 mm 1 mps 737 mmHg 59%
    09:00 +18°C° 0 mm 1 mps 737 mmHg 53%
    10:00 +20°C° 0 mm 1 mps 737 mmHg 47%
    11:00 +22°C° 0 mm 1 mps 737 mmHg 41%
    12:00 +23°C° 0 mm 1 mps 737 mmHg 39%
    13:00 +23°C° 0 mm 1 mps 736 mmHg 37%
    14:00 +24°C° 0 mm 1 mps 736 mmHg 36%
    15:00 +23°C° 0 mm 1 mps 735 mmHg 39%
    16:00 +22°C° 0 mm 1 mps 735 mmHg 43%
    17:00 +21°C° 0 mm 1 mps 735 mmHg 46%
    18:00 +20°C° 0 mm 1 mps 735 mmHg 48%
    19:00 +19°C° 0 mm 1 mps 735 mmHg 50%
    20:00 +17°C° 0 mm 2 mps 735 mmHg 53%
    21:00 +16°C° 0 mm 2 mps 735 mmHg 53%
    22:00 +16°C° 0 mm 2 mps 735 mmHg 54%
    23:00 +16°C° 0 mm 2 mps 735 mmHg 55%

    23 October, Monday

    Time Temperature Precipitation Wind Pressure Humidity
    00:00 +15°C° 0 mm 2 mps 734 mmHg 56%
    01:00 +15°C° 0 mm 2 mps 734 mmHg 56%
    02:00 +15°C° 0 mm 2 mps 734 mmHg 57%
    03:00 +15°C° 0 mm 2 mps 733 mmHg 58%
    04:00 +14°C° 0 mm 2 mps 733 mmHg 59%
    05:00 +14°C° 0 mm 2 mps 733 mmHg 60%
    06:00 +15°C° 0 mm 2 mps 733 mmHg 61%
    07:00 +15°C° 0 mm 2 mps 733 mmHg 62%
    08:00 +15°C° 0 mm 2 mps 732 mmHg 62%
    09:00 +17°C° 0 mm 2 mps 732 mmHg 57%
    10:00 +19°C° 0 mm 2 mps 732 mmHg 52%
    11:00 +20°C° 0 mm 2 mps 732 mmHg 46%
    12:00 +21°C° 0 mm 2 mps 731 mmHg 44%
    13:00 +21°C° 0 mm 2 mps 731 mmHg 42%
    14:00 +23°C° 0 mm 2 mps 731 mmHg 41%
    15:00 +21°C° 0 mm 2 mps 731 mmHg 44%
    16:00 +20°C° 0 mm 2 mps 730 mmHg 47%
    17:00 +19°C° 0 mm 2 mps 730 mmHg 51%
    18:00 +18°C° 0 mm 3 mps 731 mmHg 55%
    19:00 +17°C° 0 mm 3 mps 731 mmHg 59%
    20:00 +15°C° 0 mm 4 mps 731 mmHg 63%
    21:00 +15°C° 0 mm 4 mps 731 mmHg 68%
    22:00 +14°C° 0 mm 4 mps 732 mmHg 72%
    23:00 +14°C° 0 mm 4 mps 732 mmHg 77%

    24 October, Tuesday

    Time Temperature Precipitation Wind Pressure Humidity
    00:00 +13°C° 0 mm 4 mps 732 mmHg 78%
    01:00 +13°C° 0 mm 4 mps 732 mmHg 80%
    02:00 +13°C° 0 mm 4 mps 733 mmHg 81%
    03:00 +13°C° 0 mm 4 mps 733 mmHg 82%
    04:00 +13°C° 0 mm 4 mps 733 mmHg 82%
    05:00 +13°C° 0 mm 4 mps 733 mmHg 82%
    06:00 +13°C° 0 mm 4 mps 734 mmHg 81%
    07:00 +13°C° 0 mm 4 mps 734 mmHg 80%
    08:00 +14°C° 0 mm 4 mps 734 mmHg 79%
    09:00 +14°C° 0.2 mm 5 mps 735 mmHg 78%
    10:00 +14°C° 0.2 mm 5 mps 735 mmHg 77%
    11:00 +14°C° 0.2 mm 6 mps 735 mmHg 76%
    12:00 +14°C° 0.2 mm 6 mps 735 mmHg 76%
    13:00 +14°C° 0.2 mm 6 mps 735 mmHg 77%
    14:00 +14°C° 0.2 mm 6 mps 735 mmHg 77%
    15:00 +14°C° 0.1 mm 6 mps 736 mmHg 76%
    16:00 +14°C° 0.1 mm 6 mps 736 mmHg 75%
    17:00 +14°C° 0.1 mm 6 mps 736 mmHg 73%
    18:00 +14°C° 0 mm 6 mps 736 mmHg 73%
    19:00 +13°C° 0 mm 6 mps 737 mmHg 73%
    20:00 +13°C° 0 mm 6 mps 737 mmHg 73%
    21:00 +11°C° 0 mm 6 mps 738 mmHg 73%
    22:00 +10°C° 0 mm 5 mps 738 mmHg 73%
    23:00 +10°C° 0 mm 5 mps 738 mmHg 74%
    Show more